GW3924 Weather Reports


Display with metric or nautical units.
time (UTC)temp
F
wind
direction
speed
MPH
gust
MPH
rain 1hr
in
rain 24hr
in
rain mn
in
humidity
%
barometer
mb
20260505050904 68 139 0.0 7.0 0.00 0.00 0.00 65 1008.7
20260505050403 69 193 2.0 6.0 0.00 0.00 0.00 64 1008.6
20260505041330 69 221 1.0 3.0 0.00 0.01 0.01 62 1008.6
20260505040827 69 203 2.0 8.0 0.00 0.01 0.01 62 1008.8
20260505040319 69 203 0.0 3.0 0.00 0.01 0.01 62 1009.1
20260505035816 70 277 2.0 6.0 0.00 0.01 0.01 62 1009.1
20260505035311 70 123 2.0 6.0 0.00 0.01 0.01 61 1009.2
20260505034809 70 118 1.0 3.0 0.00 0.01 0.01 61 1009.3
20260505034305 70 237 0.0 3.0 0.00 0.01 0.01 62 1009.3
20260505033802 70 150 1.0 3.0 0.00 0.01 0.01 62 1009.3
20260505033259 70 161 2.0 3.0 0.00 0.01 0.01 61 1009.2
20260505032757 70 215 2.0 8.0 0.00 0.01 0.01 60 1009.2
20260505032253 70 149 1.0 3.0 0.00 0.01 0.01 61 1009.2
20260505031750 70 120 3.0 6.0 0.00 0.01 0.01 60 1009.1
20260505031246 70 232 2.0 2.0 0.00 0.01 0.01 60 1008.9
20260505030743 71 140 1.0 2.0 0.00 0.01 0.01 59 1009.2
20260505030240 71 178 1.0 4.0 0.00 0.01 0.01 59 1008.9
20260505025735 71 181 3.0 4.0 0.00 0.01 0.01 58 1008.8
20260505025234 71 119 2.0 4.0 0.00 0.01 0.01 58 1008.7
20260505024732 71 149 2.0 4.0 0.00 0.01 0.01 58 1008.6
20260505024229 71 181 4.0 6.0 0.00 0.01 0.01 57 1008.6
20260505023726 71 245 2.0 8.0 0.00 0.01 0.01 57 1008.3
20260505023223 71 95 1.0 6.0 0.00 0.01 0.01 58 1008.2
20260505022721 72 107 1.0 4.0 0.00 0.01 0.01 57 1008.3
20260505022217 72 35 1.0 2.0 0.00 0.01 0.01 56 1008.1
20260505021714 72 162 4.0 6.0 0.00 0.01 0.01 56 1008.0
20260505021211 72 128 2.0 2.0 0.00 0.01 0.01 56 1008.0
20260505020707 72 180 0.0 3.0 0.00 0.01 0.01 56 1008.0
20260505020202 73 45 2.0 9.0 0.00 0.01 0.01 55 1008.0
20260505015700 73 213 0.0 3.0 0.00 0.01 0.01 56 1007.8
20260505015151 73 56 3.0 7.0 0.00 0.01 0.01 54 1007.9
20260505014648 73 123 4.0 9.0 0.00 0.01 0.01 54 1007.9
20260505014145 73 187 3.0 4.0 0.00 0.01 0.01 55 1007.7
20260505013642 73 192 6.0 8.0 0.00 0.01 0.01 54 1007.8
20260505013139 73 198 2.0 6.0 0.00 0.01 0.01 54 1007.7
20260505012638 73 233 1.0 3.0 0.00 0.01 0.01 54 1007.6
20260505012134 73 127 1.0 7.0 0.00 0.01 0.01 54 1007.6
20260505011630 73 78 2.0 7.0 0.00 0.01 0.01 54 1007.4
20260505011127 73 165 3.0 8.0 0.00 0.01 0.01 54 1007.2
20260505010622 74 153 4.0 8.0 0.00 0.01 0.01 53 1007.5
20260505010119 73 130 4.0 6.0 0.00 0.01 0.01 53 1007.4
20260505005615 74 261 2.0 6.0 0.00 0.01 0.01 53 1007.3
20260505005112 74 215 2.0 8.0 0.00 0.01 0.01 53 1007.3
20260505004609 74 189 2.0 9.0 0.00 0.01 0.01 53 1007.2
20260505004106 74 215 3.0 6.0 0.00 0.01 0.01 53 1007.0
20260505003603 74 231 2.0 4.0 0.00 0.01 0.01 52 1007.2
20260505003101 74 275 2.0 6.0 0.00 0.01 0.01 53 1007.2
20260505002556 75 78 2.0 4.0 0.00 0.01 0.01 52 1007.2
20260505002055 75 148 1.0 4.0 0.00 0.01 0.01 51 1007.1
20260505001551 75 246 2.0 7.0 0.00 0.01 0.01 52 1007.3
20260505001048 76 172 2.0 10.0 0.00 0.01 0.01 50 1007.1
20260505000546 76 214 3.0 6.0 0.00 0.01 0.01 50 1007.0
20260505000044 76 148 3.0 10.0 0.00 0.01 0.01 51 1006.9
20260504235540 76 158 4.0 6.0 0.00 0.01 0.01 50 1007.1
20260504235038 76 239 1.0 6.0 0.00 0.01 0.01 52 1007.1
20260504234534 76 215 3.0 8.0 0.00 0.01 0.01 50 1007.1
20260504234031 77 232 3.0 4.0 0.00 0.01 0.01 49 1006.9
20260504233526 77 81 1.0 2.0 0.00 0.01 0.01 50 1007.1
20260504233023 77 103 2.0 6.0 0.05 0.01 0.01 48 1007.1
20260504232520 77 179 3.0 4.0 0.05 0.01 0.01 48 1007.3
20260504232018 77 114 4.0 9.0 0.00 0.00 0.00 48 1007.5
20260504231514 78 136 4.0 7.0 0.00 0.00 0.00 47 1007.5
20260504231010 78 197 2.0 4.0 0.00 0.00 0.00 46 1007.6
20260504230507 78 144 2.0 6.0 0.00 0.00 0.00 45 1007.7
20260504230006 78 108 2.0 3.0 0.00 0.00 0.00 47 1007.5
20260504225502 78 180 1.0 4.0 0.00 0.00 0.00 47 1007.5
20260504224959 78 176 2.0 7.0 0.00 0.00 0.00 46 1007.6
20260504224456 78 102 3.0 9.0 0.00 0.00 0.00 46 1007.7
20260504223953 78 166 6.0 9.0 0.00 0.00 0.00 47 1007.6
20260504223449 78 216 3.0 3.0 0.00 0.00 0.00 48 1007.6
20260504222945 78 138 2.0 6.0 0.00 0.00 0.00 47 1007.4
20260504222443 78 25 1.0 8.0 0.00 0.00 0.00 48 1007.4
20260504221940 78 201 3.0 9.0 0.00 0.00 0.00 49 1007.6
20260504221437 77 111 1.0 2.0 0.00 0.00 0.00 49 1007.5
20260504220934 77 199 1.0 2.0 0.00 0.00 0.00 49 1007.7
20260504220430 78 70 0.0 7.0 0.00 0.00 0.00 51 1007.7
20260504215928 78 152 4.0 7.0 0.00 0.00 0.00 47 1007.7
20260504215424 78 50 2.0 3.0 0.00 0.00 0.00 51 1007.8
20260504214921 77 72 2.0 8.0 0.00 0.00 0.00 49 1007.9
20260504214417 76 122 1.0 4.0 0.00 0.00 0.00 55 1007.8
20260504213914 75 156 3.0 6.0 0.00 0.00 0.00 54 1007.9
20260504213410 75 55 1.0 1.0 0.00 0.00 0.00 58 1008.0
20260504212908 74 118 1.0 8.0 0.00 0.00 0.00 56 1008.1
20260504212403 73 152 4.0 6.0 0.00 0.00 0.00 58 1008.2
20260504211901 73 138 1.0 2.0 0.00 0.00 0.00 59 1008.2
20260504211357 71 168 4.0 7.0 0.00 0.00 0.00 60 1008.0
20260504210855 68 189 2.0 2.0 0.00 0.00 0.00 69 1008.0
20260504210351 64 100 1.0 2.0 0.00 0.00 0.00 78 1008.1
20260504205848 62 114 1.0 3.0 0.00 0.00 0.00 88 1008.4
20260504205346 63 110 1.0 2.0 0.00 0.00 0.00 90 1008.5
20260504204844 64 133 0.0 2.0 0.00 0.00 0.00 85 1009.8
20260504204342 66 125 0.0 1.0 0.00 0.00 0.00 77 1010.4
20260504203842 67 58 0.0 1.0 0.00 0.00 0.00 72 1010.2
20260504203338 67 34 0.0 1.0 0.00 0.00 0.00 72 1010.2
20260504202833 68 74 0.0 0.0 0.00 0.00 0.00 73 1010.4
20260504202331 69 91 0.0 0.0 0.00 0.00 0.00 63 1010.2
20260504201827 69 67 0.0 1.0 0.00 0.00 0.00 63 1010.1
20260504201325 69 67 0.0 0.0 0.00 0.00 0.00 63 1010.2
20260504200822 70 76 0.0 0.0 0.00 0.00 0.00 61 1010.3
20260504200319 71 72 0.0 1.0 0.00 0.00 0.00 60 1010.2
20260504195815 72 76 0.0 0.0 0.00 0.00 0.00 55 1010.1
20260504195311 73 106 0.0 1.0 0.00 0.00 0.00 54 1010.1
20260504194808 74 118 0.0 1.0 0.00 0.00 0.00 57 1010.5
20260504194304 74 167 1.0 2.0 0.00 0.00 0.00 49 1010.2
20260504193800 73 84 0.0 4.0 0.00 0.00 0.00 52 1010.0
20260504193258 74 140 0.0 1.0 0.00 0.00 0.00 54 1010.0
20260504192756 74 90 0.0 1.0 0.00 0.00 0.00 51 1010.1
20260504192254 74 97 0.0 2.0 0.00 0.00 0.00 51 1009.7
20260504191752 74 95 1.0 6.0 0.00 0.00 0.00 55 1009.6
20260504191249 74 43 0.0 1.0 0.00 0.00 0.00 53 1009.8
20260504190744 75 66 1.0 3.0 0.00 0.00 0.00 51 1010.0
20260504190241 74 110 1.0 6.0 0.00 0.00 0.00 53 1009.7
20260504185737 75 110 0.0 3.0 0.00 0.00 0.00 54 1009.8
20260504185234 75 281 2.0 3.0 0.00 0.00 0.00 52 1010.0
20260504184730 75 176 2.0 7.0 0.00 0.00 0.00 51 1009.8
20260504184227 75 351 2.0 3.0 0.00 0.00 0.00 52 1009.7
20260504183722 75 225 2.0 3.0 0.00 0.00 0.00 53 1009.6
20260504183220 75 173 2.0 6.0 0.00 0.00 0.00 53 1009.5
20260504182718 75 262 1.0 6.0 0.00 0.00 0.00 52 1009.4
20260504182215 75 180 4.0 7.0 0.00 0.00 0.00 54 1009.4
20260504181712 74 180 1.0 3.0 0.00 0.00 0.00 60 1009.5
20260504181210 74 282 0.0 4.0 0.00 0.00 0.00 57 1009.6
20260504180708 74 57 2.0 3.0 0.00 0.00 0.00 56 1009.8
20260504180207 73 138 0.0 3.0 0.00 0.00 0.00 59 1009.7
20260504175704 73 208 1.0 9.0 0.00 0.00 0.00 58 1009.9
20260504175200 73 120 0.0 7.0 0.00 0.00 0.00 60 1009.9
20260504174658 72 190 4.0 4.0 0.00 0.00 0.00 59 1010.1
20260504174155 71 172 3.0 4.0 0.00 0.00 0.00 63 1010.2
20260504173652 70 165 2.0 4.0 0.00 0.00 0.00 64 1010.3
20260504173149 69 51 0.0 1.0 0.00 0.00 0.00 67 1010.6
20260504172646 69 104 1.0 2.0 0.00 0.00 0.00 65 1010.6
20260504172142 69 121 0.0 1.0 0.00 0.00 0.00 65 1010.7
20260504171639 69 146 1.0 1.0 0.00 0.00 0.00 64 1010.8
20260504171136 69 122 0.0 2.0 0.00 0.00 0.00 67 1011.1
20260504170632 69 67 0.0 1.0 0.00 0.00 0.00 65 1011.2
20260504170130 69 136 1.0 2.0 0.00 0.00 0.00 64 1011.4
20260504151009 71 165 3.0 6.0 0.00 0.00 0.00 60 1011.8
20260504150507 71 177 3.0 7.0 0.00 0.00 0.00 63 1011.9
20260504140933 68 131 0.0 1.0 0.00 0.00 0.00 69 1012.2
20260504140429 67 125 2.0 4.0 0.00 0.00 0.00 67 1012.4
20260504130354 62 123 1.0 3.0 0.00 0.00 0.00 77 1013.1
20260504120317 59 112 0.0 1.0 0.00 0.00 0.00 81 1013.4
20260504110241 58 161 0.0 1.0 0.00 0.00 0.00 80 1013.1
20260504100200 59 95 0.0 1.0 0.00 0.00 0.00 77 1013.1
20260504090122 60 91 0.0 0.0 0.00 0.00 0.00 75 1013.2
20260504081552 59 106 0.0 0.0 0.00 0.00 0.00 79 1013.2
20260504081048 58 113 1.0 1.0 0.00 0.00 0.00 82 1013.4
20260504080545 58 110 0.0 0.0 0.00 0.00 0.00 81 1013.2